Вернуться в каталог

COSMOS 1000

АктивенВоенныеPO
NORAD 10776·PAYLOAD·🇷🇺 Russia

Запущен Mar 31, 1978 с Plesetsk Cosmodrome

Loading…

Ближайшие Пролёты (ближайшие 24 часа)

TLE

СвежийSource: Space-Track

Эпоха: Sep 14, 2026, 02:44 UTC

1 10776U 78034A   26257.11444534  .00000039  00000-0  24942-4 0  9998
2 10776  82.9392 282.3112 0033199 256.2685 117.7403 13.75620824431597

Отслеживайте COSMOS 1000 в реальном времени с AllMySat

Download on the App Store